This is the latest recevied weather packets stored in our database for station/object KI4NG. If no packets are shown the sender has not sent any weather packets the latest 10 day(s).
| Time | Temp. | Humidity | Pressure | Rain* | Wind** | Luminosity | Snow |
|---|---|---|---|---|---|---|---|
| 1778025617 | 20.56° C | 55% | 1010.1 hPa | 0 mm | - | 14 W/m² | - |
| 1778025315 | 20.56° C | 56% | 1010.4 hPa | 0 mm | - | 23 W/m² | - |
| 1778025011 | 20.56° C | 58% | 1010.6 hPa | 0 mm | - | 29 W/m² | - |
| 1778024708 | 20.56° C | 59% | 1010.6 hPa | 0 mm | - | 24 W/m² | - |
| 1778024405 | 20.56° C | 57% | 1010.6 hPa | 0 mm | - | 18 W/m² | - |
| 1778024103 | 20.56° C | 58% | 1010.6 hPa | 0 mm | - | 25 W/m² | - |
| 1778023800 | 20.56° C | 57% | 1010.9 hPa | 0 mm | - | 37 W/m² | - |
| 1778023498 | 20.56° C | 56% | 1011 hPa | 0 mm | - | 41 W/m² | - |
| 1778023195 | 21.11° C | 56% | 1011 hPa | 0 mm | - | 58 W/m² | - |
| 1778022892 | 21.11° C | 56% | 1011.2 hPa | 0 mm | - | 47 W/m² | - |
| 1778022590 | 21.11° C | 56% | 1010.9 hPa | 0 mm | - | 48 W/m² | - |
| 1778022288 | 21.11° C | 54% | 1010.9 hPa | 0 mm | - | 52 W/m² | - |
| 1778021983 | 21.67° C | 54% | 1011.1 hPa | 0 mm | - | 84 W/m² | - |
| 1778021681 | 21.67° C | 53% | 1011 hPa | 0 mm | - | 94 W/m² | - |
| 1778021377 | 21.67° C | 52% | 1010.8 hPa | 0 mm | - | 88 W/m² | - |
| 1778021074 | 21.67° C | 52% | 1010.7 hPa | 0 mm | - | 209 W/m² | - |
| 1778020771 | 21.67° C | 53% | 1010.9 hPa | 0 mm | - | 215 W/m² | - |
| 1778020468 | 21.67° C | 53% | 1011 hPa | 0 mm | - | 86 W/m² | - |
| 1778020164 | 21.67° C | 54% | 1010.7 hPa | 0 mm | - | 136 W/m² | - |
| 1778019860 | 21.11° C | 55% | 1010.8 hPa | 0 mm | - | 269 W/m² | - |
| 1778019556 | 21.11° C | 55% | 1010.7 hPa | 0 mm | - | 209 W/m² | - |
| 1778019254 | 21.11° C | 55% | 1011 hPa | 0 mm | - | 114 W/m² | - |
| 1778018951 | 21.67° C | 56% | 1010.8 hPa | 0 mm | - | 114 W/m² | - |
| 1778018648 | 21.67° C | 54% | 1011 hPa | 0 mm | - | 345 W/m² | - |
| 1778018346 | 21.67° C | 58% | 1010.9 hPa | 0 mm | - | 340 W/m² | - |
* Rain latest hour (hover to see other rain measurements)
** Current wind speed in m/s (hover to see current wind gust speed)